Hourly Data Report for October 04, 2017

All times are specified in Local Standard Time (LST). Add 1 hour to adjust for Daylight Saving Time where and when it is observed.

ST. PETERS
PRINCE EDWARD ISLAND

46°27'01.000" N
62°34'33.000" W
29.70 m
8300562
71310
ZSP

Download Data

Hourly Data (October 2017)
Hourly Data Report for October 4, 2017
Temp Definition
°C
Dew Point Temp Definition
°C
Rel Hum Definition
%
Wind Dir Definition
10's deg

Wind Spd Definition
km/h
Visibility Definition
km
Stn Press Definition
kPa
Hmdx Definition


Wind Chill Definition


Weather Definition


TIME
00:00 8.6 7.2 91 21 15   102.46     LegendNANA
01:00 8.7 7.7 93 20 13   102.40     LegendNANA
02:00 9.0 8.1 94 21 16   102.29     LegendNANA
03:00 9.4 8.5 94 21 18   102.21     LegendNANA
04:00 10.0 9.0 94 21 21   102.10     LegendNANA
05:00 10.6 9.6 94 21 19   102.00     LegendNANA
06:00 11.0 9.9 93 21 22   101.90     LegendNANA
07:00 11.7 10.2 91 22 22   101.90     LegendNANA
08:00 13.1 10.9 86 22 22   101.84     LegendNANA
09:00 14.7 11.4 81 23 23   101.82     LegendNANA
10:00 16.5 12.0 75 23 23   101.73     LegendNANA
11:00 17.7 11.8 69 23 25   101.68     LegendNANA
12:00 18.4 11.4 64 23 24   101.58     LegendNANA
13:00 19.3 11.8 62 23 23   101.46     LegendNANA
14:00 20.1 11.7 58 23 23   101.37     LegendNANA
15:00 19.8 11.9 60 23 25   101.31     LegendNANA
16:00 19.5 11.8 61 22 26   101.24     LegendNANA
17:00 18.4 11.1 62 22 27   101.15     LegendNANA
18:00 17.7 10.7 63 21 28   101.06     LegendNANA
19:00 17.0 10.3 64 21 29   100.99     LegendNANA
20:00 17.0 9.6 62 22 29   100.97     LegendNANA
21:00 16.2 9.7 66 22 29   100.93     LegendNANA
22:00 15.8 10.3 70 21 29   100.83     LegendNANA
23:00 15.8 10.4 70 21 32   100.78     LegendNANA

Notes on Data Quality.

Legend

  • E = Estimated
  • M = Missing
  • NA = Not Available
  • ‡ = Partner data that is not subject to review by the National Climate Archives
Date modified: